sat.trackr.live / text

‹ back to catalog

INTELSAT 37E (IS-37E)

NORAD 42950 · 2017-059A

PAYLOAD ACTIVE UNKNOWN

§ Identity

Operator
Country
ITSO
Launch date
2017-09-29
Launch site
FRGUI
Launch vehicle
Mass (kg)
RCS (m²)

Purposes: comms

External: N2YO · Heavens-Above · Gunter

§ Orbital elements

Epoch: 2026-09-14T22:16:17.537664Z

Period
1,436.09 min
Inclination
0.0208°
Eccentricity
0.0002638
Mean motion
1.00272592 rev/d
Perigee alt
35,775.2 km
Apogee alt
35,797.5 km
Semi-major
42,164.5 km
B*
0.0000e+0
RAAN
138.4448°
Arg perigee
32.4089°
Mean anomaly
139.1310°
Rev number
3,296

§ Raw data

INTELSAT 37E (IS-37E)1 42950U 17059A   26257.92798076 -.00000148  00000+0  00000+0 0  99942 42950   0.0208 138.4448 0002638  32.4089 139.1310  1.00272592 32965

JSON: /api/v1/satellites/42950 · /tle

For live sub-satellite position, see the globe view (requires WebGL).

§ Visibility from observer

Set your observer location to see the next 7 days of passes ≥ 10°. The values pass through the URL so the page stays shareable.

No JS? Fill the form by hand. The geolocation button needs JavaScript.